sat.trackr.live / text

‹ back to catalog

STARLINK-36921

NORAD 68019 · 2026-040E

PAYLOAD ACTIVE UNKNOWN

§ Identity

Operator
Country
US
Launch date
2026-03-01
Launch site
AFWTR
Launch vehicle
Mass (kg)
RCS (m²)

Purposes: comms

External: N2YO · Heavens-Above · Gunter

§ Orbital elements

Epoch: 2026-09-19T13:54:38.799072Z

Period
93.91 min
Inclination
97.2850°
Eccentricity
0.0001879
Mean motion
15.33438260 rev/d
Perigee alt
464.3 km
Apogee alt
466.8 km
Semi-major
6,843.7 km
B*
5.3282e-4
RAAN
209.8843°
Arg perigee
90.6760°
Mean anomaly
269.4698°
Rev number
3,117

§ Raw data

STARLINK-369211 68019U 26040E   26262.57961573  .00017162  00000+0  53282-3 0  99962 68019  97.2850 209.8843 0001879  90.6760 269.4698 15.33438260 31175

JSON: /api/v1/satellites/68019 · /tle

For live sub-satellite position, see the globe view (requires WebGL).

§ Visibility from observer

Set your observer location to see the next 7 days of passes ≥ 10°. The values pass through the URL so the page stays shareable.

No JS? Fill the form by hand. The geolocation button needs JavaScript.